[[{"header":{"parameterUnit":"m.s-1","parameterCategory":1,"la1":30.2991,"la2":30.254,"lo1":-89.0895,"lo2":-89.0444,"dy":0.0017,"dx":0.0017,"nx":28,"ny":28,"refTime":"2025-02-28T09:00:00:Z","depth":0,"parameterNumber":2,"parameterNumberName":"U-component_of_WINDS"},"data":[0,0,0,0,0,0,0,0,0,0,0,0,0,0,0,0,0,0,0,0,0,0,0,0,0,0,0,0,0,0,0,0,0,0,0,0,0,0,0,0,0,0,0,0,0,0,0,0,0,0,0,0,0,0,0,0,0,0,0.6414,0.6414,0,0.643,0.643,0.643,0.6422,0.6421,0.6421,0.642,0.6437,0.6437,0.6438,0,0,0,0,0,0,0,0,0,0,0,0,0,0.6377,0.6378,0.6414,0.6414,0.6414,0.6429,0.643,0.643,0.6422,0.6421,0.6421,0.642,0.6436,0.6437,0.6438,0,0,0,0,0,0,0,0,0,0,0,0,0,0.6393,0.6378,0.6414,0.6412,0.6412,0.6429,0.643,0.643,0.6422,0.6421,0.6421,0.642,0.6436,0.6437,0.6438,0.6459,0,0,0.6442,0.6443,0,0,0,0,0,0,0,0,0.6392,0.6394,0.6412,0.6412,0.6412,0.6423,0.6423,0.644,0.6422,0.6418,0.642,0.642,0.6433,0.6434,0.6438,0.646,0.646,0.6442,0.6443,0.6444,0.6444,0,0,0,0,0,0,0,0.6391,0.6393,0.642,0.6412,0.6412,0.641,0.6412,0.6426,0.6429,0.6418,0.6418,0.642,0.6433,0.6437,0.6439,0.646,0.6442,0.6443,0.6444,0.6445,0.65,0.65,0,0,0,0,0,0,0.639,0.6393,0.6419,0.642,0.64,0.6412,0.6413,0.642,0.6428,0.6429,0.642,0.6419,0.6435,0.6437,0.6439,0.6464,0.6444,0.6445,0.6446,0.6499,0.65,0.6501,0,0,0,0,0,0,0.6389,0.6392,0.6419,0.6406,0.641,0.6413,0.6421,0.6421,0.6425,0.643,0.643,0.6425,0.6435,0.6438,0.6454,0.6465,0.6445,0.6446,0.6498,0.6499,0.65,0.6514,0,0,0,0,0,0,0.6388,0.6392,0.64,0.6407,0.641,0.6433,0.6421,0.6421,0.6428,0.6427,0.6434,0.6435,0.6435,0.6452,0.6455,0.6466,0.6447,0.6497,0.6499,0.65,0.6512,0.6515,0.6517,0,0,0,0,0,0.6387,0.6402,0.64,0.6403,0.642,0.6434,0.6436,0.6436,0.6428,0.6436,0.6439,0.6435,0.6463,0.6454,0.6457,0.6468,0.6497,0.6498,0.65,0.6511,0.6514,0.6517,0,0,0,0,0,0,0.6396,0.6403,0.6401,0.6419,0.6426,0.6432,0.6442,0.6439,0.6448,0.6447,0.6446,0.6448,0.6465,0.6468,0.6458,0.6489,0.6479,0.6481,0.6486,0.6489,0.6492,0.6491,0.6448,0,0,0,0,0,0.6401,0.6411,0.6417,0.6433,0.6436,0.6439,0.6445,0.6444,0.6451,0.6454,0.6458,0.6465,0.6476,0.6483,0.6493,0.6513,0.6515,0.6522,0.6525,0.6527,0.6529,0.654,0.6544,0.6506,0.6506,0.6506,0,0,0.641,0.6415,0.6422,0.6435,0.644,0.6452,0.6441,0.6453,0.6462,0.6456,0.6472,0.6475,0.6483,0.6502,0.651,0.6505,0.654,0.6529,0.653,0.6531,0.6542,0.6546,0.6549,0.6507,0.6507,0.6507,0,0,0.6432,0.6437,0.6451,0.6456,0.6464,0.6466,0.6469,0.6477,0.6479,0.6495,0.6491,0.6501,0.6519,0.6525,0.653,0.6556,0.6552,0.6559,0.6572,0.6583,0.6586,0.6589,0.6598,0.6602,0.6561,0.6561,0.6561,0,0.6442,0.6459,0.6458,0.6471,0.6477,0.6473,0.6487,0.6492,0.6503,0.6508,0.6502,0.6525,0.653,0.655,0.6557,0.6561,0.6565,0.6558,0.6586,0.6589,0.6591,0.66,0.6604,0.6562,0.6562,0.6562,0.6562,0,0.6471,0.6483,0.6493,0.6504,0.6512,0.6525,0.6527,0.6535,0.6533,0.6536,0.6553,0.6558,0.657,0.6575,0.6573,0.6595,0.6592,0.6586,0.6576,0.6596,0.6604,0.6607,0.6563,0.6563,0.6562,0.6562,0,0,0.65,0.6511,0.6514,0.652,0.6529,0.6538,0.6551,0.6563,0.6569,0.6577,0.6589,0.6605,0.66,0.6606,0.6605,0.6615,0.6636,0.6609,0.6609,0.6614,0.6661,0.6665,0.6669,0.6633,0.6634,0.6634,0.666,0,0.6523,0.6546,0.6547,0.6569,0.658,0.6576,0.6588,0.6595,0.6597,0.6608,0.6611,0.6622,0.6614,0.6618,0.6628,0.6631,0.6645,0.6629,0.6644,0.6645,0.6643,0.6673,0.6678,0.6701,0.6663,0.6664,0.6664,0,0.6553,0.6562,0.6585,0.6593,0.6598,0.6609,0.6619,0.6629,0.6637,0.6638,0.6646,0.6644,0.6658,0.6647,0.6667,0.6656,0.6663,0.6665,0.6666,0.6668,0.6656,0.6676,0.6709,0.6712,0.6669,0.6669,0.6669,0,0.6571,0.659,0.6606,0.6611,0.662,0.6628,0.6632,0.664,0.6647,0.6656,0.6661,0.6672,0.6678,0.6686,0.6688,0.668,0.6708,0.6697,0.671,0.671,0.6716,0.6715,0.675,0.6719,0.6719,0.6719,0.6719,0,0.6597,0.6612,0.6615,0.6625,0.6641,0.6641,0.6658,0.6661,0.6668,0.6679,0.6676,0.6687,0.6688,0.6699,0.67,0.6716,0.6719,0.6721,0.6721,0.6721,0.6721,0.6725,0.6724,0.672,0.672,0.672,0.672,0,0.6621,0.6624,0.6641,0.6649,0.6651,0.6663,0.667,0.668,0.6683,0.6697,0.67,0.6704,0.6717,0.6719,0.6734,0.6735,0.6755,0.6753,0.6752,0.6752,0.6764,0.6763,0.6803,0.6809,0.6774,0.6774,0.6775,0,0.6637,0.6648,0.6658,0.6665,0.667,0.6681,0.6689,0.669,0.6697,0.6708,0.6717,0.6729,0.6739,0.6759,0.6764,0.6775,0.6774,0.6788,0.6776,0.6776,0.6775,0.6774,0.6775,0.679,0.679,0.6791,0.6791,0,0.6666,0.6667,0.6678,0.6689,0.6698,0.6707,0.6715,0.6721,0.6723,0.6732,0.6745,0.6753,0.6769,0.6781,0.6793,0.6797,0.6795,0.6794,0.6798,0.6798,0.6797,0.6798,0.6758,0.6794,0.6793,0.6793,0.6793,0.6793,0.6687,0.6697,0.6705,0.6717,0.6724,0.6732,0.6742,0.6746,0.6757,0.6769,0.6769,0.6784,0.6792,0.6808,0.6813,0.6825,0.682,0.6825,0.6827,0.6828,0.6829,0.6796,0.6827,0.6827,0.6827,0.6827,0.6827,0,0.6716,0.6721,0.6732,0.6744,0.6754,0.6751,0.676,0.6769,0.6781,0.6789,0.6799,0.6815,0.6827,0.6833,0.6845,0.6853,0.6852,0.6856,0.6856,0.6857,0.6832,0.6828,0.6857,0.6857,0.6857,0.6857,0.6857,0.6857,0.6732,0.6749,0.6751,0.6771,0.6776,0.6791,0.6796,0.6804,0.6811,0.6828,0.6838,0.6842,0.6849,0.6862,0.6873,0.6875,0.6879,0.6884,0.6885,0.6862,0.6859,0.6856,0.6852,0.6885,0.6885,0.6909,0.6909,0.6909]},{"header":{"parameterUnit":"m.s-1","parameterCategory":1,"la1":30.2991,"la2":30.254,"lo1":-89.0895,"lo2":-89.0444,"dy":0.0017,"dx":0.0017,"nx":28,"ny":28,"refTime":"2025-02-28T09:00:00:Z","depth":0,"parameterNumber":3,"parameterNumberName":"V-component_of_WINDS"},"data":[0,0,0,0,0,0,0,0,0,0,0,0,0,0,0,0,0,0,0,0,0,0,0,0,0,0,0,0,0,0,0,0,0,0,0,0,0,0,0,0,0,0,0,0,0,0,0,0,0,0,0,0,0,0,0,0,0,0,-0.6009,-0.6009,0,-0.6044,-0.6044,-0.6045,-0.6048,-0.6047,-0.6047,-0.6047,-0.6083,-0.6084,-0.6085,0,0,0,0,0,0,0,0,0,0,0,0,0,-0.5945,-0.5946,-0.6009,-0.6009,-0.601,-0.6044,-0.6045,-0.6045,-0.6048,-0.6047,-0.6047,-0.6047,-0.6082,-0.6084,-0.6085,0,0,0,0,0,0,0,0,0,0,0,0,0,-0.5975,-0.5946,-0.6009,-0.6015,-0.6016,-0.6044,-0.6045,-0.6045,-0.6048,-0.6047,-0.6047,-0.6046,-0.6082,-0.6084,-0.6086,-0.6109,0,0,-0.6092,-0.6092,0,0,0,0,0,0,0,0,-0.5974,-0.5978,-0.6014,-0.6015,-0.6016,-0.6041,-0.6035,-0.6067,-0.6048,-0.6036,-0.6047,-0.6046,-0.6069,-0.6072,-0.608,-0.6111,-0.6112,-0.6092,-0.6093,-0.6094,-0.6094,0,0,0,0,0,0,0,-0.5971,-0.5976,-0.6023,-0.6014,-0.6016,-0.6017,-0.602,-0.6041,-0.6055,-0.6037,-0.6037,-0.6041,-0.607,-0.6078,-0.6081,-0.6113,-0.6092,-0.6093,-0.6095,-0.6095,-0.6166,-0.6167,0,0,0,0,0,0,-0.5968,-0.5974,-0.6022,-0.6024,-0.5993,-0.6018,-0.6022,-0.6034,-0.6055,-0.6058,-0.6042,-0.6041,-0.6075,-0.6079,-0.6082,-0.6112,-0.6094,-0.6096,-0.6097,-0.6166,-0.6166,-0.6167,0,0,0,0,0,0,-0.5967,-0.5972,-0.602,-0.5999,-0.6005,-0.602,-0.6032,-0.6035,-0.6043,-0.6059,-0.6061,-0.6048,-0.6075,-0.6079,-0.6103,-0.6114,-0.6096,-0.6098,-0.6165,-0.6166,-0.6167,-0.6172,0,0,0,0,0,0,-0.5965,-0.5972,-0.5981,-0.5999,-0.6007,-0.604,-0.6033,-0.6036,-0.6046,-0.6046,-0.6065,-0.6068,-0.6075,-0.61,-0.6105,-0.6116,-0.61,-0.6164,-0.6165,-0.6166,-0.6171,-0.6173,-0.6175,0,0,0,0,0,-0.5962,-0.598,-0.5981,-0.5987,-0.6018,-0.6041,-0.6045,-0.6052,-0.6047,-0.6057,-0.6067,-0.6067,-0.6111,-0.6102,-0.6108,-0.612,-0.6163,-0.6165,-0.6166,-0.617,-0.6173,-0.6175,0,0,0,0,0,0,-0.5962,-0.5983,-0.5984,-0.6008,-0.6023,-0.6041,-0.6053,-0.6055,-0.6071,-0.607,-0.6079,-0.6083,-0.6106,-0.6115,-0.6104,-0.6144,-0.6137,-0.614,-0.6138,-0.6141,-0.6143,-0.614,-0.6101,0,0,0,0,0,-0.5965,-0.5981,-0.5999,-0.6019,-0.6026,-0.6038,-0.6048,-0.6053,-0.6068,-0.6074,-0.6086,-0.6101,-0.6119,-0.613,-0.6147,-0.6172,-0.6177,-0.6183,-0.6185,-0.6187,-0.619,-0.6205,-0.6209,-0.6172,-0.6172,-0.6172,0,0,-0.5971,-0.5984,-0.5994,-0.6019,-0.6031,-0.6048,-0.6043,-0.6061,-0.6075,-0.6077,-0.61,-0.611,-0.6127,-0.6152,-0.6163,-0.616,-0.6201,-0.6189,-0.619,-0.6192,-0.6207,-0.6211,-0.6214,-0.6173,-0.6173,-0.6173,0,0,-0.5991,-0.6002,-0.602,-0.6033,-0.6051,-0.6059,-0.6063,-0.6082,-0.6088,-0.6112,-0.6114,-0.613,-0.6159,-0.6172,-0.6182,-0.6208,-0.6209,-0.6213,-0.6224,-0.6239,-0.6242,-0.6245,-0.6255,-0.6259,-0.6216,-0.6216,-0.6216,0,-0.5996,-0.6022,-0.603,-0.6048,-0.606,-0.6063,-0.6082,-0.6094,-0.6116,-0.6124,-0.612,-0.6158,-0.617,-0.6198,-0.6205,-0.6213,-0.6219,-0.6211,-0.6241,-0.6244,-0.6246,-0.6257,-0.626,-0.6216,-0.6216,-0.6216,-0.6216,0,-0.6028,-0.6046,-0.6059,-0.6081,-0.6094,-0.6113,-0.6124,-0.6136,-0.614,-0.6149,-0.6173,-0.6187,-0.6208,-0.6215,-0.6218,-0.6244,-0.6242,-0.6239,-0.6232,-0.625,-0.626,-0.6264,-0.6217,-0.6217,-0.6216,-0.6216,0,0,-0.6048,-0.6075,-0.608,-0.6091,-0.6111,-0.6126,-0.6145,-0.6166,-0.6176,-0.6192,-0.6209,-0.6234,-0.6233,-0.6244,-0.6249,-0.6262,-0.6284,-0.6258,-0.6259,-0.6264,-0.6315,-0.6318,-0.6322,-0.6284,-0.6285,-0.6286,-0.6314,0,-0.6071,-0.6106,-0.6114,-0.6144,-0.6162,-0.6166,-0.6183,-0.6198,-0.6207,-0.6223,-0.6233,-0.6251,-0.6247,-0.6254,-0.6267,-0.6278,-0.6294,-0.6276,-0.6301,-0.6302,-0.6298,-0.6327,-0.6329,-0.6355,-0.6318,-0.6318,-0.6319,0,-0.6103,-0.612,-0.6152,-0.6172,-0.6179,-0.6194,-0.6215,-0.623,-0.6247,-0.6253,-0.6266,-0.627,-0.6291,-0.6283,-0.6312,-0.63,-0.631,-0.6318,-0.6319,-0.6322,-0.6312,-0.6332,-0.6364,-0.6368,-0.6324,-0.6324,-0.6324,0,-0.6117,-0.6147,-0.6171,-0.618,-0.6203,-0.6214,-0.6224,-0.624,-0.6252,-0.627,-0.6278,-0.6297,-0.6308,-0.6323,-0.6333,-0.6325,-0.6362,-0.6354,-0.6368,-0.6368,-0.6377,-0.6376,-0.6411,-0.6382,-0.6381,-0.6381,-0.6381,0,-0.6142,-0.6162,-0.6177,-0.6192,-0.6215,-0.6224,-0.6246,-0.6256,-0.6271,-0.6288,-0.6292,-0.6308,-0.6319,-0.6336,-0.6344,-0.6368,-0.6373,-0.6378,-0.638,-0.6379,-0.6378,-0.6387,-0.6386,-0.6382,-0.6382,-0.6382,-0.6382,0,-0.6161,-0.6172,-0.6198,-0.6218,-0.6224,-0.624,-0.6257,-0.6271,-0.6281,-0.6302,-0.6308,-0.6322,-0.6344,-0.6354,-0.638,-0.6386,-0.6413,-0.6413,-0.6408,-0.6409,-0.6423,-0.6422,-0.6466,-0.6473,-0.6437,-0.6438,-0.6438,0,-0.6177,-0.6193,-0.6215,-0.6226,-0.6237,-0.6256,-0.6268,-0.6278,-0.6291,-0.6313,-0.6325,-0.6346,-0.6364,-0.6398,-0.6411,-0.6431,-0.6433,-0.6447,-0.6436,-0.6434,-0.6435,-0.6434,-0.6436,-0.6449,-0.6449,-0.645,-0.645,0,-0.6205,-0.621,-0.6228,-0.6249,-0.6264,-0.628,-0.6297,-0.6306,-0.6319,-0.6333,-0.6355,-0.6369,-0.6396,-0.6418,-0.6439,-0.645,-0.6453,-0.6453,-0.6458,-0.6457,-0.6454,-0.6457,-0.6414,-0.6452,-0.6452,-0.6452,-0.6452,-0.6452,-0.6224,-0.6239,-0.6257,-0.6277,-0.6291,-0.6306,-0.6321,-0.6333,-0.6351,-0.6374,-0.6379,-0.6403,-0.642,-0.645,-0.6461,-0.648,-0.6477,-0.6483,-0.6485,-0.6487,-0.6489,-0.645,-0.6484,-0.6484,-0.6484,-0.6484,-0.6483,0,-0.6254,-0.6266,-0.6284,-0.6308,-0.6324,-0.6325,-0.6343,-0.6357,-0.6377,-0.6394,-0.6411,-0.6437,-0.6459,-0.6474,-0.6495,-0.6508,-0.651,-0.6513,-0.6513,-0.6516,-0.6489,-0.6484,-0.6512,-0.6512,-0.6512,-0.6512,-0.6512,-0.6512,-0.6271,-0.6296,-0.6303,-0.6336,-0.6347,-0.6371,-0.6381,-0.6396,-0.6409,-0.6438,-0.6456,-0.6466,-0.6482,-0.6505,-0.6525,-0.6529,-0.6537,-0.6541,-0.6545,-0.652,-0.6517,-0.6515,-0.651,-0.6543,-0.6543,-0.6571,-0.6571,-0.6571]}]]